#timestamp,LO_Frequency,Hit,StdDev 
1566874815.5,286047000.8,N
1566874835.4,286047000.7,N
1566874855.2,286047002.7,N
1566874875.0,286046999.7,N
1566874875.9,286046999.7,N
1566874895.8,286047000.8,N
1566874915.6,286047000.3,N
1566874935.5,286047001.1,N
1566874955.3,286047000.9,N
1566874975.1,286047000.6,N
1566874995.9,286047000.0,N
1566875015.7,286047001.8,N
1566875035.5,286047001.8,N
1566875055.4,286047001.5,N
1566875075.2,286047001.8,N
1566875095.1,286047000.2,N
1566875096.0,286047000.2,N
1566875115.8,286047002.7,N
1566875135.6,286047002.8,N
1566875155.5,286047001.5,N
1566875175.3,286047001.2,N
1566875195.2,286047001.0,N
1566875215.9,286047000.4,N
1566875235.7,286047000.4,N
1566875255.6,286046999.9,N
1566875275.4,286047002.1,N
1566875295.3,286047000.1,N
1566875315.1,286046999.7,N
1566875316.0,286046999.7,N
1566875335.8,286046999.7,N
1566875355.7,286047001.0,N
1566875375.5,286046998.2,N
1566875395.3,286047000.4,N
1566875415.2,286047002.4,N
1566875435.0,286047000.6,N
1566875435.9,286047000.6,N
1566875455.8,286046999.8,N
1566875475.6,286047001.8,N
1566875495.4,286047001.4,N
1566875515.3,286047002.3,N
1566875535.1,286047001.8,N
1566875555.9,286047002.2,N
1566875575.7,286046999.8,N
1566875595.5,286047000.0,N
1566875615.4,286047001.9,N
1566875635.2,286047001.3,N
1566875655.1,286047002.2,N
1566875656.0,286047002.2,N
1566875675.8,286047001.4,N
1566875695.6,286047001.3,N
1566875715.5,286047001.4,N
1566875735.3,286047001.7,N
1566875755.1,286047003.6,Y
1566875775.9,286047001.3,P
1566875795.7,286047003.1,P
1566875815.6,286047005.5,P
1566875835.4,286047005.6,Y
1566875855.2,286047002.2,P
1566875875.1,286047002.4,P
1566875876.0,286047002.4,P
1566875895.8,286046999.8,N
1566875915.7,286047000.7,N
1566875935.5,286047000.8,N
1566875955.3,286046998.6,N
1566875975.2,286046999.9,N
1566875995.0,286046998.5,N
1566875995.9,286046998.5,N
1566876015.8,286047000.7,N
1566876035.6,286046998.4,N
1566876055.4,286047001.2,N
1566876075.3,286046999.0,N
1566876095.1,286046998.8,N
1566876115.9,286046999.2,N
1566876135.7,286046999.1,N
1566876155.5,286046999.5,N
1566876175.4,286046999.2,N
1566876195.2,286046999.6,N
1566876215.0,286046996.6,N
1566876215.9,286046996.6,N
1566876235.8,286046997.4,N
1566876255.6,286046997.8,N
1566876275.5,286046997.8,N
1566876295.3,286046996.7,N
1566876315.1,286046994.9,N
1566876335.9,286046997.2,N
1566876355.7,286046997.9,N
1566876375.6,286046995.6,N
1566876395.4,286046995.6,N
1566876415.2,286046995.8,N
1566876435.1,286046993.3,Y
1566876436.0,286046993.3,P
1566876455.8,286046995.0,N
1566876475.7,286046997.8,N
1566876495.5,286046997.4,N
1566876515.3,286046997.9,N
1566876535.2,286046993.8,Y
1566876555.0,286046997.4,P
1566876555.9,286046997.4,P
1566876575.8,286046995.4,P
1566876595.6,286046995.5,Y
1566876615.4,286046998.5,P
1566876635.3,286047000.6,N
1566876655.1,286047000.9,N
1566876675.9,286046998.2,N
1566876695.7,286047000.1,N
1566876715.5,286047000.0,N
1566876735.4,286047002.8,N
1566876755.2,286046999.0,N
1566876775.0,286047000.3,N
1566876776.0,286047000.3,N
1566876795.8,286047001.1,N
1566876815.6,286046998.5,N
1566876835.5,286046999.2,N
1566876855.3,286047001.0,N
1566876875.1,286047000.3,N
1566876895.9,286047001.0,N
1566876915.7,286047000.3,N
1566876935.6,286047000.5,N
1566876955.4,286046999.8,N
1566876975.2,286046999.9,N
1566876995.1,286047000.9,N
1566876996.0,286047000.9,N
1566877015.8,286047000.8,N
1566877035.6,286047001.1,N
1566877055.5,286047000.3,N
1566877075.3,286047001.2,N
1566877095.2,286047000.6,N
1566877115.9,286047000.9,N
1566877135.7,286047000.8,N
1566877155.6,286047000.9,N
1566877175.4,286046998.1,N
1566877195.3,286047000.3,N
1566877215.1,286047000.6,N
1566877216.0,286047000.6,N
1566877235.8,286047001.7,N
1566877255.7,286047002.7,N
1566877275.5,286047001.5,N
1566877295.4,286047002.4,N
1566877315.2,286047002.7,N
1566877335.0,286047001.1,N
1566877335.9,286047001.1,N
1566877355.8,286046998.1,N
1566877375.6,286047000.9,N
1566877395.4,286046998.1,N
1566877415.3,286047000.5,N
1566877435.1,286047000.0,N
1566877455.9,286047000.5,N
1566877475.7,286046999.9,N
1566877495.5,286047002.2,N
1566877545.4,286047005.5,E
1566877555.3,286047002.1,N
1566877575.2,286046997.8,P
1566877595.0,286046997.5,N
1566877595.9,286046997.5,N
1566877615.7,286046996.9,N
1566877635.6,286046999.4,N
1566877655.4,286046997.4,N
1566877675.3,286046997.3,N
1566877695.1,286046997.0,N
1566877696.0,286046997.0,N
1566877715.8,286046997.0,N
1566877735.7,286046999.1,N
1566877755.5,286046997.1,N
1566877775.3,286046999.5,N
1566877795.2,286046998.6,N
1566877815.0,286047001.1,N
1566877815.9,286047001.1,N
1566877835.8,286046998.8,N
1566877855.6,286046998.4,N
1566877875.4,286046999.4,N
1566877895.3,286046999.3,N
1566877915.1,286046999.0,N
1566877935.9,286046996.7,N
1566877955.7,286046996.6,N
1566877975.5,286046996.8,N
1566877995.4,286046998.5,N
1566878015.2,286046998.2,N
1566878035.0,286046998.5,N
1566878035.9,286046998.5,N
1566878055.8,286046998.6,N
1566878075.6,286046998.1,N
1566878095.5,286047000.8,N
1566878115.3,286047001.0,N
1566878135.1,286047000.6,N
1566878155.9,286047001.1,N
1566878175.7,286047001.0,N
1566878195.6,286046999.2,N
1566878215.4,286046998.8,N
1566878235.2,286046998.2,N
1566878255.1,286046998.9,N
1566878256.0,286046998.9,N
1566878275.8,286046998.7,N
1566878295.6,286046998.7,N
1566878315.5,286047001.2,N
1566878335.3,286046998.3,N
1566878355.2,286046998.3,N
1566878375.9,286047001.2,N
1566878395.7,286047000.4,N
